Flag for Poland Past Weather in Lidzbark Warmiński, Poland — Yesterday and Last 2 Weeks

Now
65 °F

Mild.


Feels Like: 65 °F
Forecast: 60 / 82 °F
Wind: 5 mph from Southwest

Location: Ketrzyn

Current Time: Aug 27, 2016 at 1:33:40 AM

Latest Report: Aug 27, 2016 at 12:00 AM


Visibility: 28 mi

Pressure: 30.16 "Hg

Humidity: 68%

Dew Point: 54 °F

Location of Lidzbark WarmińskiLocation

Past Weather in Lidzbark Warmiński — Graph

°F

Lidzbark Warmiński Temperature Yesterday

Maximum temperature yesterday: 80 °F (at 3:00 PM)
Minimum temperature yesterday: 58 °F (at 5:00 AM)
Average temperature yesterday: 69 °F

High & Low Weather Summary for the Past Weeks

 TemperatureHumidityPressure
High81 °F (Aug 20, 4:00 PM)99% (Aug 23, 5:00 AM)30.35 "Hg (Aug 23, 5:00 AM)
Low46 °F (Aug 12, 5:00 AM)39% (Aug 26, 4:00 PM)29.77 "Hg (Aug 18, 5:00 AM)
Average62 °F80%30.07 "Hg
* Reported Aug 12 12:00 AM — Aug 27 12:00 AM, Lidzbark Warmiński, Weather by CustomWeather, © 2016

Note: Actual official high and low records may vary slightly from our data, if they occured in-between our weather recording intervals... More about our weather records

Advertising

Lidzbark Warmiński Weather History for the Previous 24 Hours

Scroll right to see more
 ConditionsComfort  
Time TempWeatherWind HumidityBarometerVisibility
12:00 AM
Sat, Aug 27
65 °FMild.5 mph68%30.16 "Hg28 mi
11:00 PM
Fri, Aug 26
66 °FMild.3 mph65%30.14 "Hg28 mi
10:00 PM67 °FMild.2 mph63%30.14 "Hg31 mi
9:00 PM69 °FMild.5 mph59%30.14 "Hg25 mi
8:00 PM70 °FMild.3 mph57%30.14 "Hg31 mi
7:00 PM74 °FMild.5 mph50%30.14 "Hg28 mi
6:00 PM78 °FWarm.7 mph46%30.14 "Hg22 mi
5:00 PM79 °FWarm.7 mph41%30.16 "Hg19 mi
4:00 PM80 °FPleasantly warm.9 mph39%30.17 "Hg19 mi
3:00 PM80 °FWarm.8 mph41%30.18 "Hg22 mi
2:00 PM79 °FWarm.9 mph40%30.20 "Hg19 mi
1:00 PM78 °FWarm.8 mph45%30.22 "Hg22 mi
12:00 PM76 °FMild.9 mph46%30.22 "Hg22 mi
11:00 AM75 °FMild.8 mph52%30.24 "Hg19 mi
10:00 AM73 °FMild.7 mph56%30.25 "Hg19 mi
9:00 AM70 °FMild.5 mph62%30.25 "Hg22 mi
8:00 AM66 °FMild.5 mph72%30.26 "Hg22 mi
7:00 AM62 °FCool.2 mph82%30.26 "Hg22 mi
6:00 AM58 °FCool.2 mph85%30.26 "Hg25 mi
5:00 AM58 °FCool.2 mph85%30.26 "Hg28 mi
4:00 AM59 °FCool.2 mph83%30.27 "Hg25 mi
3:00 AM59 °FCool.2 mph85%30.27 "Hg28 mi
2:00 AM60 °FCool.2 mph87%30.27 "Hg25 mi
1:00 AM60 °FCool.2 mph86%30.27 "Hg22 mi
Weather by CustomWeather, © 2016

See weather overviewHow to use our weather pages